Details for Norwegian Air International at EFHK




Go Back


Latest METAR
Local Time

EFHK 221020Z 20025KT 9999 VCSH FEW030CB SCT032 BKN200 15/08 Q0995 NOSIG
22/09/2018, 13:48:56

Description
Results
Norwegian Air International Logo
Number of Pilots based at EFHK
0 Pilots Based here
Number of Norwegian Air International Flights Departed from EFHK
5 Flights Departed
Number of Norwegian Air International Flights Arrived at EFHK
5 Flights Arrived
Number of Norwegian Air International Schedules Departing from EFHK
70 Schedules
Number of Norwegian Air International Schedules Arriving at EFHK
72 Schedules
Number of Norwegian Air International Schedules Departing from EFHK availible today
21 Schedules Today
Number of Norwegian Air International Schedules Arriving at EFHK availible today
21 Schedules Today
Average Landing Rate at EFHK
-189 fpm
Norwegian Air International Average Landing Rate at EFHK
-226 fpm
Total Fuel Purchased at EFHK by Norwegian Air International
27,216.45 kgs / 60,001.39 lbs

Pilots Based at EFHK


Pilot ID
Pilot Name
Pilot Rank
No. of Flights
No. of Flying Hours
There are no pilots assigned to this hub!   Will you be the first?
Content